VCUB1 (56215 NORAD) Tracking and Keplerian Element Data

This shows tracking and keplerian element data for the satellite.

Feedback or suggestion? Click here.




ElementValue
Catalog56215
NameVCUB1
Epoch Orbit375
Epoch Day126.51182122
Epoch Year2023
RAAN22.0581
Inclination97.4101
Eccentricity0.0012602
Argument of Perigee140.1631
Mean Anonmoly344.4816
Mean Motion15.23036387
Decay Rate0.00016915
L11 56215U 23054AP 23126.51182122 .00016915 00000+0 71903-3 0 9993
L22 56215 97.4101 22.0581 0012602 140.1631 344.4816 15.23036387 3751



Live tracking and technical data element details for VCUB1 (NORAD 56215). VCUB1 can be tracked NOW for your location showing map with azimuth and elevation plus other details from your city location.







IsCatalogInMostPopularTable: catalog: 56215, numindb: 7
Update: records affected: 1



GetName: 56215 VCUB1

Hit Count: updated at: Wed, 07 Jun 2023 09:45:08 GMT